Kansas Department of Transportation
RWIS(Road and Runway Information System) Map and Weather Data





Station
Surface
Air
Wind
Site IDSensor TypeLocationTemperature (°F)Temperature (°F)Humidity (%)Speed (mi/h)Gusts (mi/h)DirectionTime
123002AtmosphericBonner Springs 6146410EMar 19 2019 5:40PM
123002ApproachBonner Springs72     Mar 19 2019 5:40PM
123002DeckBonner Springs72     Mar 19 2019 5:40PM
123014AtmosphericBull Creek 643748ESEMar 19 2019 5:40PM
123014DeckBull Creek75     Mar 19 2019 5:40PM
123014DepartureBull Creek73     Mar 19 2019 5:40PM
123015AtmosphericLeavenworth 6147412SMar 19 2019 5:40PM
123015DeckLeavenworthUnavailable     Mar 19 2019 5:40PM
123015DepartureLeavenworth63     Mar 19 2019 5:40PM
123020RoadwayMayettaUnavailable     Mar 19 2019 5:40PM
123020DeckMayettaUnavailable     Mar 19 2019 5:40PM
505000AtmosphericKTA 1 684247WNWMar 19 2019 5:30PM
505000ApproachKTA 168     Mar 19 2019 5:30PM
505000DeckKTA 170     Mar 19 2019 5:30PM
505001AtmosphericKTA 2 576679NNWMar 19 2019 5:30PM
505001ApproachKTA 266     Mar 19 2019 5:30PM
505001DeckKTA 264     Mar 19 2019 5:30PM
505002AtmosphericKTA 3 509947NMar 19 2019 5:30PM
505002ApproachKTA 359     Mar 19 2019 5:30PM
505002DeckKTA 359     Mar 19 2019 5:30PM
505003AtmosphericKTA 4 5269612NMar 19 2019 5:30PM
505003ApproachKTA 454     Mar 19 2019 5:30PM
505003DeckKTA 455     Mar 19 2019 5:30PM
505004AtmosphericKTA 5 61991214NMar 19 2019 5:30PM
505004RoadwayKTA 561     Mar 19 2019 5:30PM
505004RoadwayKTA 561     Mar 19 2019 5:30PM
505005AtmosphericKTA 6 5459714WNWMar 19 2019 5:30PM
505005Approach KTA 663     Mar 19 2019 5:30PM
505005DeckKTA 661     Mar 19 2019 5:30PM
505006AtmosphericKTA 7 5759712NNWMar 19 2019 5:30PM
505006ApproachKTA 7Unavailable     Mar 19 2019 5:30PM
505006DeckKTA 7Unavailable     Mar 19 2019 5:30PM
505007AtmosphericKTA 8 614848SMar 19 2019 5:30PM
505007ApproachKTA 861     Mar 19 2019 5:30PM
505007DeckKTA 863     Mar 19 2019 5:30PM
505008AtmosphericKTA 9 6310410SEMar 19 2019 5:30PM
505008ApproachKTA 968     Mar 19 2019 5:30PM
505008DeckKTA 966     Mar 19 2019 5:30PM
505009AtmosphericKTA 10 684900NMar 19 2019 5:30PM
505009ApproachKTA 1070     Mar 19 2019 5:30PM
505009DeckKTA 1073     Mar 19 2019 5:30PM
505010AtmosphericWebb 638168WMar 19 2019 5:40PM
505010DeckWebb54     Mar 19 2019 5:40PM
505010NullWebb54     Mar 19 2019 5:40PM
505014AtmosphericI-135 648269NMar 19 2019 5:35PM
505014ApproachI-13557     Mar 19 2019 5:40PM
505014DeckI-135Unavailable     Mar 19 2019 5:40PM
540000AtmosphericBlue Rapids 439767NNEMar 19 2019 5:40PM
540000DeckBlue Rapids46     Mar 19 2019 5:40PM
540000DepartureBlue Rapids46     Mar 19 2019 5:40PM
540001AtmosphericSabetha 418859NMar 19 2019 5:40PM
540001ApproachSabetha46     Mar 19 2019 5:40PM
540001DeckSabetha46     Mar 19 2019 5:40PM
540002AtmosphericWestgate 5457813NWMar 19 2019 5:40PM
540002DeckWestgate59     Mar 19 2019 5:40PM
540002DepartureWestgate59     Mar 19 2019 5:40PM
540003AtmosphericEmporia 665249NMar 19 2019 5:40PM
540003ApproachEmporia63     Mar 19 2019 5:40PM
540003DeckEmporia63     Mar 19 2019 5:40PM
540005AtmosphericLawrence 6346614EMar 19 2019 5:40PM
540005ApproachLawrenceUnavailable     Mar 19 2019 5:40PM
540005DeckLawrenceUnavailable     Mar 19 2019 5:40PM
540006AtmosphericTroy 55728 EMar 19 2019 5:35PM
540006DeckTroy      Mar 19 2019 5:35PM
540006DepartureTroyUnavailable     Mar 19 2019 5:35PM
540007AtmosphericManhattan 439213NMar 19 2019 5:40PM
540007DepartureManhattan48     Mar 19 2019 5:40PM
540007DeckManhattan48     Mar 19 2019 5:40PM
541000AtmosphericElkhart 55311116NMar 19 2019 5:40PM
541000ApproachElkhart77     Mar 19 2019 5:40PM
541000DeckElkhart70     Mar 19 2019 5:40PM
541000DeckElkhart70     Mar 19 2019 5:40PM
541001AtmosphericSyracuse 54271120NMar 19 2019 5:40PM
541001Out of Service for WinterSyracuse72     Mar 19 2019 5:40PM
541001DeckSyracuse68     Mar 19 2019 5:40PM
541002AtmosphericLiberal 57391117NMar 19 2019 5:40PM
541002ApproachLiberalUnavailable     Mar 19 2019 5:40PM
541002DeckLiberalUnavailable     Mar 19 2019 5:40PM
541003AtmosphericFord 5546611NMar 19 2019 5:40PM
541003DeckFord66     Mar 19 2019 5:40PM
541003DepartureFord66     Mar 19 2019 5:40PM
541004AtmosphericScott 552800NNEMar 19 2019 5:40PM
541004DepartureScottUnavailable     Mar 19 2019 5:40PM
541005AtmosphericNess 55461114NMar 19 2019 5:40PM
541005DeckNess68     Mar 19 2019 5:40PM
541005DepartureNess72     Mar 19 2019 5:40PM
541007AtmosphericGarden City 54391219NMar 19 2019 5:40PM
541007ApproachGarden City63     Mar 19 2019 5:40PM
541007DeckGarden City5     Mar 19 2019 5:40PM
543000AtmosphericJunction City 459812NNEMar 19 2019 5:40PM
543000ApproachJunction City48     Mar 19 2019 5:40PM
543000DeckJunction CityUnavailable     Mar 19 2019 5:40PM
543002AtmosphericMcPherson 4310000NNEMar 19 2019 5:40PM
543002ApproachMcPherson48     Mar 19 2019 5:40PM
543002DeckMcPherson50     Mar 19 2019 5:40PM
543003AtmosphericSalina 467479NNEMar 19 2019 5:40PM
543003DepartureSalina54     Mar 19 2019 5:40PM
543003RoadwaySalinaUnavailable     Mar 19 2019 5:40PM
543004AtmosphericConcordia 4381711NNWMar 19 2019 5:40PM
543004ApproachConcordiaUnavailable     Mar 19 2019 5:40PM
543004DeckConcordia52     Mar 19 2019 5:40PM
543005AtmosphericPeabody 459300WMar 19 2019 5:40PM
543005ApproachPeabody52     Mar 19 2019 5:40PM
543005DeckPeabodyUnavailable     Mar 19 2019 5:40PM
560000AtmosphericEdson 57421219NMar 19 2019 5:40PM
560000RoadwayEdson      Mar 19 2019 5:40PM
560000RoadwayEdson      Mar 19 2019 5:40PM
560001AtmosphericOakley 5052710NNWMar 19 2019 5:40PM
560001ApproachOakley66     Mar 19 2019 5:40PM
560001DeckOakley64     Mar 19 2019 5:40PM
560002AtmosphericAtwood 50481117NMar 19 2019 5:40PM
560002ApproachAtwood68     Mar 19 2019 5:40PM
560002DeckAtwoodUnavailable     Mar 19 2019 5:40PM
560003AtmosphericJennings 4869811ENEMar 19 2019 5:40PM
560003ApproachJennings73     Mar 19 2019 5:40PM
560003DeckJennings72     Mar 19 2019 5:40PM
560003DeckJennings72     Mar 19 2019 5:40PM
560004AtmosphericWakeeney 5056713NMar 19 2019 5:40PM
560004ApproachWakeeney70     Mar 19 2019 5:40PM
560004DeckWakeeney72     Mar 19 2019 5:40PM
560005AtmosphericWalker 5061812NNWMar 19 2019 5:40PM
560005ApproachWalkerUnavailable     Mar 19 2019 5:40PM
560005DeckWalkerUnavailable     Mar 19 2019 5:40PM
560006AtmosphericBow Creek(Stockton) 4663711NMar 19 2019 5:40PM
560006ApproachBow Creek(Stockton)57     Mar 19 2019 5:40PM
560006DeckBow Creek(Stockton)57     Mar 19 2019 5:40PM
560007AtmosphericLebanon 378268NNEMar 19 2019 5:40PM
560007ApproachLebanon50     Mar 19 2019 5:40PM
560007DeckLebanon50     Mar 19 2019 5:40PM
560008AtmosphericWallace 5214814NMar 19 2019 5:40PM
560008ApproachWallace73     Mar 19 2019 5:40PM
560008DeckWallace70     Mar 19 2019 5:40PM
572000AtmosphericGreat Bend 5265914NMar 19 2019 5:40PM
572000ApproachGreat Bend70     Mar 19 2019 5:40PM
572000DeckGreat Bend64     Mar 19 2019 5:40PM
572001AtmosphericPratt 541618NNEMar 19 2019 5:40PM
572001ApproachPratt61     Mar 19 2019 5:40PM
572001DeckPratt61     Mar 19 2019 5:40PM
573001AtmosphericGarnett 6636914SWMar 19 2019 5:40PM
573001ApproachGarnett79     Mar 19 2019 5:40PM
573001DeckGarnett79     Mar 19 2019 5:40PM
573002AtmosphericCaney 7020611ESEMar 19 2019 5:40PM
573002RoadwayCaney81     Mar 19 2019 5:40PM
573003AtmosphericChetopa 6833411SSEMar 19 2019 5:40PM
573003DeckChetopa84     Mar 19 2019 5:40PM
573003DeckChetopa84     Mar 19 2019 5:40PM
573003DepartureChetopa88     Mar 19 2019 5:40PM
573004AtmosphericChanute 6834913SMar 19 2019 5:40PM
573004ApproachChanute79     Mar 19 2019 5:40PM
573004DeckChanute77     Mar 19 2019 5:40PM